When you browse on this site, cookies collect data to enhance your experience and personalize the content and advertising you see.
Visit our Privacy Policy to learn more. By continuing to use the site, you agree to this use of cookies and data.
  • In Österreich
  • Länderverzeichnis
  • Für 7 Tage
  • Wassertemperatur
  • Satellitenkarten
  • Wetterkarte
  • News
  • Widgets
  • user-avatar
    Anmelden

    Stündliche Wetter Kandahar

    Heute, 22 April, Montag

    Zeit Temperatur Niederschläge Wind Luftdruck Luftfeuchtigkeit
    00:00 +27°C° 0 mm 2 m/S 673 mmHg 22%
    01:00 +27°C° 0 mm 1 m/S 673 mmHg 24%
    02:00 +26°C° 0 mm 1 m/S 672 mmHg 24%
    03:00 +23°C° 0 mm 0 m/S 672 mmHg 25%
    04:00 +22°C° 0 mm 0 m/S 672 mmHg 27%
    05:00 +24°C° 0 mm 0 m/S 673 mmHg 24%
    06:00 +25°C° 0 mm 0 m/S 673 mmHg 21%
    07:00 +27°C° 0 mm 0 m/S 674 mmHg 18%
    08:00 +30°C° 0 mm 1 m/S 674 mmHg 16%
    09:00 +32°C° 0 mm 2 m/S 675 mmHg 14%
    10:00 +34°C° 0 mm 3 m/S 675 mmHg 12%
    11:00 +35°C° 0 mm 3 m/S 675 mmHg 11%
    12:00 +36°C° 0 mm 3 m/S 675 mmHg 10%
    13:00 +36°C° 0 mm 3 m/S 675 mmHg 9%
    14:00 +37°C° 0 mm 4 m/S 675 mmHg 9%
    15:00 +37°C° 0 mm 4 m/S 674 mmHg 9%
    16:00 +37°C° 0 mm 4 m/S 674 mmHg 9%
    17:00 +36°C° 0 mm 4 m/S 674 mmHg 10%
    18:00 +35°C° 0 mm 3 m/S 674 mmHg 11%
    19:00 +34°C° 0 mm 3 m/S 674 mmHg 13%
    20:00 +32°C° 0 mm 2 m/S 674 mmHg 14%
    21:00 +31°C° 0 mm 2 m/S 674 mmHg 15%
    22:00 +31°C° 0 mm 1 m/S 674 mmHg 17%
    23:00 +30°C° 0 mm 2 m/S 674 mmHg 18%

    Morgen, 23 April, Dienstag

    Zeit Temperatur Niederschläge Wind Luftdruck Luftfeuchtigkeit
    00:00 +30°C° 0 mm 3 m/S 674 mmHg 20%
    01:00 +29°C° 0 mm 4 m/S 674 mmHg 21%
    02:00 +29°C° 0 mm 5 m/S 674 mmHg 25%
    03:00 +28°C° 0 mm 5 m/S 674 mmHg 29%
    04:00 +27°C° 0 mm 5 m/S 674 mmHg 33%
    05:00 +28°C° 0 mm 4 m/S 674 mmHg 32%
    06:00 +28°C° 0 mm 3 m/S 675 mmHg 32%
    07:00 +28°C° 0 mm 2 m/S 675 mmHg 31%
    08:00 +29°C° 0 mm 2 m/S 675 mmHg 28%
    09:00 +31°C° 0 mm 2 m/S 675 mmHg 26%
    10:00 +32°C° 0 mm 2 m/S 676 mmHg 23%
    11:00 +34°C° 0 mm 3 m/S 676 mmHg 21%
    12:00 +35°C° 0 mm 4 m/S 675 mmHg 19%
    13:00 +36°C° 0 mm 5 m/S 675 mmHg 17%
    14:00 +36°C° 0 mm 6 m/S 675 mmHg 17%
    15:00 +36°C° 0 mm 7 m/S 675 mmHg 17%
    16:00 +35°C° 0 mm 8 m/S 674 mmHg 17%
    17:00 +34°C° 0 mm 6 m/S 674 mmHg 18%
    18:00 +33°C° 0 mm 5 m/S 674 mmHg 20%
    19:00 +32°C° 0 mm 4 m/S 674 mmHg 21%
    20:00 +30°C° 0.1 mm 3 m/S 674 mmHg 25%
    21:00 +29°C° 0.1 mm 3 m/S 674 mmHg 28%
    22:00 +29°C° 0.1 mm 3 m/S 675 mmHg 32%
    23:00 +28°C° 0.2 mm 2 m/S 675 mmHg 35%

    übermorgen, 24 April, Mittwoch

    Zeit Temperatur Niederschläge Wind Luftdruck Luftfeuchtigkeit
    00:00 +28°C° 0.2 mm 1 m/S 674 mmHg 37%
    01:00 +27°C° 0.2 mm 1 m/S 674 mmHg 40%
    02:00 +27°C° 0.1 mm 1 m/S 674 mmHg 41%
    03:00 +26°C° 0.1 mm 1 m/S 673 mmHg 42%
    04:00 +25°C° 0.1 mm 2 m/S 673 mmHg 43%
    05:00 +26°C° 0.1 mm 3 m/S 673 mmHg 40%
    06:00 +27°C° 0.1 mm 3 m/S 674 mmHg 38%
    07:00 +27°C° 0.1 mm 4 m/S 674 mmHg 35%
    08:00 +29°C° 0 mm 5 m/S 674 mmHg 30%
    09:00 +32°C° 0 mm 7 m/S 675 mmHg 25%
    10:00 +33°C° 0 mm 8 m/S 675 mmHg 20%
    11:00 +33°C° 0 mm 9 m/S 675 mmHg 19%
    12:00 +34°C° 0 mm 9 m/S 674 mmHg 19%
    13:00 +34°C° 0 mm 10 m/S 674 mmHg 19%
    14:00 +33°C° 0 mm 10 m/S 674 mmHg 19%
    15:00 +32°C° 0 mm 10 m/S 674 mmHg 19%
    16:00 +31°C° 0 mm 10 m/S 673 mmHg 20%
    17:00 +29°C° 0 mm 9 m/S 674 mmHg 22%
    18:00 +28°C° 0 mm 8 m/S 674 mmHg 23%
    19:00 +27°C° 0 mm 7 m/S 674 mmHg 25%
    20:00 +26°C° 0 mm 6 m/S 674 mmHg 24%
    21:00 +24°C° 0 mm 6 m/S 674 mmHg 24%
    22:00 +23°C° 0 mm 5 m/S 675 mmHg 23%
    23:00 +22°C° 0 mm 5 m/S 675 mmHg 24%

    25 April, Donnerstag

    Zeit Temperatur Niederschläge Wind Luftdruck Luftfeuchtigkeit
    00:00 +21°C° 0 mm 4 m/S 674 mmHg 26%
    01:00 +20°C° 0 mm 4 m/S 674 mmHg 28%
    02:00 +20°C° 0 mm 3 m/S 674 mmHg 30%
    03:00 +19°C° 0 mm 3 m/S 674 mmHg 32%
    04:00 +19°C° 0 mm 3 m/S 674 mmHg 35%
    05:00 +19°C° 0 mm 3 m/S 675 mmHg 33%
    06:00 +19°C° 0 mm 3 m/S 676 mmHg 32%
    07:00 +20°C° 0 mm 3 m/S 676 mmHg 31%
    08:00 +21°C° 0 mm 3 m/S 677 mmHg 26%
    09:00 +22°C° 0 mm 4 m/S 677 mmHg 21%
    10:00 +25°C° 0 mm 4 m/S 678 mmHg 16%
    11:00 +26°C° 0 mm 5 m/S 678 mmHg 15%
    12:00 +26°C° 0 mm 5 m/S 677 mmHg 14%
    13:00 +27°C° 0 mm 5 m/S 677 mmHg 13%
    14:00 +27°C° 0 mm 5 m/S 677 mmHg 13%
    15:00 +27°C° 0 mm 5 m/S 676 mmHg 13%
    16:00 +27°C° 0 mm 5 m/S 676 mmHg 13%
    17:00 +26°C° 0 mm 5 m/S 676 mmHg 13%
    18:00 +25°C° 0 mm 5 m/S 676 mmHg 14%
    19:00 +23°C° 0 mm 4 m/S 676 mmHg 15%
    20:00 +23°C° 0 mm 4 m/S 676 mmHg 16%
    21:00 +22°C° 0 mm 4 m/S 676 mmHg 17%
    22:00 +21°C° 0 mm 3 m/S 677 mmHg 17%
    23:00 +21°C° 0 mm 3 m/S 676 mmHg 19%

    26 April, Freitag

    Zeit Temperatur Niederschläge Wind Luftdruck Luftfeuchtigkeit
    00:00 +20°C° 0 mm 2 m/S 676 mmHg 20%
    01:00 +20°C° 0 mm 1 m/S 675 mmHg 21%
    02:00 +20°C° 0 mm 1 m/S 675 mmHg 22%
    03:00 +19°C° 0 mm 1 m/S 675 mmHg 23%
    04:00 +19°C° 0 mm 1 m/S 675 mmHg 24%
    05:00 +20°C° 0 mm 1 m/S 675 mmHg 22%
    06:00 +20°C° 0 mm 1 m/S 676 mmHg 21%
    07:00 +21°C° 0 mm 1 m/S 677 mmHg 19%
    08:00 +21°C° 0 mm 2 m/S 677 mmHg 17%
    09:00 +23°C° 0 mm 2 m/S 677 mmHg 15%
    10:00 +25°C° 0 mm 2 m/S 677 mmHg 13%
    11:00 +26°C° 0 mm 2 m/S 677 mmHg 12%
    12:00 +27°C° 0 mm 3 m/S 677 mmHg 11%
    13:00 +27°C° 0 mm 3 m/S 676 mmHg 10%
    14:00 +28°C° 0 mm 4 m/S 676 mmHg 10%
    15:00 +28°C° 0 mm 4 m/S 676 mmHg 10%
    16:00 +28°C° 0 mm 4 m/S 675 mmHg 10%
    17:00 +27°C° 0 mm 4 m/S 676 mmHg 11%
    18:00 +26°C° 0 mm 4 m/S 676 mmHg 13%
    19:00 +26°C° 0 mm 3 m/S 676 mmHg 14%
    20:00 +25°C° 0 mm 3 m/S 676 mmHg 15%
    21:00 +24°C° 0 mm 3 m/S 676 mmHg 17%
    22:00 +24°C° 0 mm 3 m/S 676 mmHg 19%
    23:00 +23°C° 0 mm 2 m/S 676 mmHg 20%

    27 April, Samstag

    Zeit Temperatur Niederschläge Wind Luftdruck Luftfeuchtigkeit
    00:00 +21°C° 0 mm 2 m/S 675 mmHg 22%
    01:00 +22°C° 0 mm 1 m/S 675 mmHg 24%
    02:00 +21°C° 0 mm 1 m/S 675 mmHg 25%
    03:00 +20°C° 0 mm 1 m/S 675 mmHg 26%
    04:00 +20°C° 0 mm 1 m/S 675 mmHg 27%
    05:00 +21°C° 0 mm 1 m/S 675 mmHg 25%
    06:00 +21°C° 0 mm 2 m/S 676 mmHg 23%
    07:00 +21°C° 0 mm 2 m/S 676 mmHg 21%
    08:00 +24°C° 0 mm 2 m/S 677 mmHg 18%
    09:00 +25°C° 0 mm 3 m/S 677 mmHg 16%
    10:00 +26°C° 0 mm 3 m/S 677 mmHg 14%
    11:00 +27°C° 0 mm 4 m/S 677 mmHg 13%
    12:00 +28°C° 0 mm 4 m/S 677 mmHg 12%
    13:00 +29°C° 0 mm 4 m/S 676 mmHg 11%
    14:00 +29°C° 0 mm 5 m/S 676 mmHg 11%
    15:00 +29°C° 0 mm 5 m/S 675 mmHg 11%
    16:00 +29°C° 0 mm 6 m/S 675 mmHg 11%
    17:00 +28°C° 0 mm 5 m/S 675 mmHg 13%
    18:00 +27°C° 0 mm 5 m/S 675 mmHg 14%
    19:00 +26°C° 0 mm 5 m/S 676 mmHg 16%
    20:00 +25°C° 0 mm 5 m/S 676 mmHg 17%
    21:00 +25°C° 0 mm 5 m/S 676 mmHg 19%
    22:00 +23°C° 0 mm 4 m/S 676 mmHg 21%
    23:00 +22°C° 0 mm 4 m/S 676 mmHg 22%
    Mehr zeigen